{"data":{"norad_id":65583,"epoch":"2026-09-19T19:06:07.987392Z","epoch_age_seconds":75159,"freshness":"FRESH","line1":"1 65583U 25203U   26262.79592578  .00000166  00000+0  14047-3 0  9990","line2":"2 65583  81.2998 283.3289 0006419 296.4320  63.6177 13.83212522 51776","mean_motion":13.83212522,"eccentricity":0.0006419,"inclination_deg":81.2998,"raan_deg":283.3289,"arg_perigee_deg":296.432,"mean_anomaly_deg":63.6177,"bstar":0.00014047,"rev_number":5177,"period_min":104.10547743726,"perigee_km":947.80883920257,"apogee_km":957.21992944977,"semimajor_km":7330.6513843262,"source":"CELESTRAK","updated_at":"2026-09-20T09:00:47.718608Z"}}